This is the latest recevied weather packets stored in our database for station/object K8CWG. If no packets are shown the sender has not sent any weather packets the latest 10 day(s).
| Time | Temp. | Humidity | Pressure | Rain* | Wind** | Luminosity | Snow |
|---|---|---|---|---|---|---|---|
| 1777850101 | 15° C | 43% | 1012.7 hPa | 0 mm | - | - | - |
| 1777849202 | 15° C | 43% | 1013.2 hPa | 0 mm | - | - | - |
| 1777847401 | 15.56° C | 43% | 1013.4 hPa | 0 mm | - | - | - |
| 1777846500 | 16.67° C | 44% | 1013.6 hPa | 0 mm | - | - | - |
| 1777845610 | 15.56° C | - | - | 29.21 mm | - | - | - |
| 1777842901 | 15° C | 42% | 1014.3 hPa | 0 mm | - | - | - |
| 1777842002 | 15° C | 41% | 1014.7 hPa | 0 mm | - | - | - |
| 1777839301 | 15.56° C | 43% | 1014.5 hPa | 0 mm | - | - | - |
| 1777838404 | 16.11° C | 42% | 1014.7 hPa | 0 mm | - | - | - |
| 1777837502 | 15.56° C | 41% | 1015.2 hPa | 0 mm | - | - | - |
| 1777836603 | 16.11° C | 42% | 1015.6 hPa | 0 mm | - | - | - |
| 1777835701 | 16.67° C | 40% | 1015.7 hPa | 0 mm | - | - | - |
| 1777834803 | 16.67° C | - | - | 29.21 mm | - | - | - |
| 1777831208 | 15.56° C | 43% | 1016.8 hPa | 0 mm | - | - | - |
| 1777830301 | 16.11° C | 42% | 1017 hPa | 0 mm | - | - | - |
| 1777829401 | 15° C | 41% | 1017.4 hPa | 0 mm | - | - | - |
| 1777828502 | 15.56° C | 45% | 1017.7 hPa | 0 mm | - | - | - |
| 1777827603 | 15° C | - | - | 29.21 mm | - | - | - |
| 1777824003 | 14.44° C | 46% | 1018.8 hPa | 0 mm | - | - | - |
| 1777823101 | 14.44° C | 48% | 1019 hPa | 0 mm | - | - | - |
| 1777822202 | 13.89° C | 52% | 1019.1 hPa | 0 mm | - | - | - |
| 1777821302 | 12.78° C | 51% | 1019.1 hPa | 0 mm | - | - | - |
| 1777820402 | 12.22° C | 51% | 1019.2 hPa | 0 mm | - | - | - |
| 1777819501 | 11.11° C | 55% | 1019.1 hPa | 0 mm | - | - | - |
| 1777818602 | 10.56° C | 59% | 1019.1 hPa | 0 mm | - | - | - |
* Rain latest hour (hover to see other rain measurements)
** Current wind speed in m/s (hover to see current wind gust speed)